Regional Weather Roundup
Issued by NWS

Home | Current Version | Previous Version | Text Only | Print | Product List | Glossary On
Versions: 1 2 3 4 5 6 7 8 9 10 11 12 13 14 15 16 17 18 19 20 21 22 23 24 25 26 27 28 29 30 31 32 33 34 35 36 37 38 39 40 41 42 43 44 45 46 47 48 49 50
000
ASUS43 KDMX 202306
RWRIA

WEATHER ROUNDUP FOR IOWA
NATIONAL WEATHER SERVICE DES MOINES IA
600 PM CDT WED SEP 20 2017

NOTE: "FAIR" INDICATES FEW OR NO CLOUDS BELOW 12,000 FEET WITH NO
SIGNIFICANT WEATHER AND/OR OBSTRUCTIONS TO VISIBILITY.

* - THESE STATIONS ARE NOT NWS STATIONS...THUS NOT UNDER NWS
QUALITY CONTROL.  THEY ALSO DO NOT REPORT WEATHER SUCH
AS PRECIPITATION OR FOG.

IAZ001>003-012>014-020>022-031>034-043>046-210000-
   NORTHWEST IOWA

CITY           SKY/WX    TMP DP  RH WIND       PRES   REMARKS
CARROLL *      SUNNY     77  52  41 N7        29.85S
CHEROKEE *     SUNNY     74  46  36 NW3       29.87S
DENISON *      SUNNY     75  52  43 N6        29.88R
LE MARS *      SUNNY     73  45  35 CALM      29.87R
ORANGE CITY *  SUNNY     73  46  38 CALM      29.87S
SHELDON *      SUNNY     73  43  33 CALM      29.86S
SIOUX CITY     SUNNY     74  49  41 NE6       29.86S
SPENCER        SUNNY     75  48  38 NE6       29.88R
STORM LAKE *   SUNNY     75  43  31 NE5       29.88R
$$

IAZ055>058-069>071-079>083-090>094-210000-
   SOUTHWEST IOWA

CITY           SKY/WX    TMP DP  RH WIND       PRES   REMARKS
ATLANTIC *     SUNNY     77  59  53 N10       29.84S
AUDUBON *      SUNNY     77  55  47 N7        29.86S
CLARINDA *     MOSUNNY   81  66  61 N7        29.84R HX  83
COUNCIL BLFS * SUNNY     77  54  44 NE6G13    29.85S
CRESTON *      PTSUNNY   82  66  57 N10       29.85R HX  85
HARLAN  *      SUNNY     77  54  44 NE8       29.89R
LAMONI         MOSUNNY   84  71  65 S8        29.82R HX  89
RED OAK *      SUNNY     81  63  54 NE9       29.83S HX  82
SHENANDOAH *   SUNNY     82  61  47 N7        29.83R HX  83
$$

IAZ047>049-059>061-072>074-084-210000-
   CENTRAL IOWA

CITY           SKY/WX    TMP DP  RH WIND       PRES   REMARKS
AMES           MOSUNNY   81  62  52 N12       29.82R HX  82
ANKENY *       CLOUDY    82  63  51 N12       29.82R HX  83
BOONE *        PTSUNNY   81  59  47 N10G16    29.84R HX  81
CHARITON *     MOSUNNY   82  72  69 S7G13     29.81S HX  87
DES MOINES     PTSUNNY   84  65  52 N6        29.81R HX  86
GRINNELL*      PTSUNNY   84  70  62 S8        29.83R HX  88
KNOXVILLE *    MOSUNNY   82  70  65 S6        29.80R HX  86
MARSHALLTOWN   CLOUDY    80  73  79 NW5       29.81R HX  84
NEWTON *       PTSUNNY   84  72  65 SW9       29.81R HX  89
PELLA *        SUNNY     84  69  59 S8        29.82R HX  88
PERRY *          N/A     81  54  38 N7        29.84R HX  81
$$

IAZ004>006-015-016-023>025-035-036-210000-
   NORTH CENTRAL IOWA

CITY           SKY/WX    TMP DP  RH WIND       PRES   REMARKS
ALGONA *       SUNNY     75  54  46 NE7       29.87R
CLARION *      SUNNY     77  55  47 N8        29.85S
ESTHERVILLE    SUNNY     72  48  42 NW5       29.87R
FORT DODGE *   SUNNY     77  54  44 N6        29.86R
MASON CITY     SUNNY     75  53  46 NW8       29.87R
FOREST CITY *    N/A     72  54  53 N8        29.87R
IOWA FALLS *     N/A     81  60  48 N13       29.85R HX  82
$$

IAZ007>011-017>019-026>030-037>042-050>054-066-210000-
   NORTHEAST IOWA

CITY           SKY/WX    TMP DP  RH WIND       PRES   REMARKS
CEDAR RAPIDS   CLOUDY    85  70  60 SW12      29.79S HX  89
CHARLES CITY * SUNNY     77  61  57 N7G14     29.85R
CLINTON *      PTSUNNY  N/A N/A N/A S8        29.81R
DECORAH *      CLOUDY    75  66  73 N10G16    29.82R
DUBUQUE        TSTM      78  72  81 W14       29.83R HX  80
MONTICELLO *   CLOUDY    86  72  62 W3        29.80R HX  92
OELWEIN *      LGT RAIN  77  75  94 NW9       29.82R
WATERLOO       CLOUDY    74  71  91 NW3       29.81R
$$

IAZ064-065-067-068-078-210000-
   EAST CENTRAL IOWA

CITY           SKY/WX    TMP DP  RH WIND       PRES   REMARKS
DAVENPORT      MOSUNNY   89  69  51 S13G20    29.81S HX  93
IOWA CITY      MOSUNNY   87  71  58 W8        29.81R HX  93
MT. PLEASANT * MOSUNNY   90  67  45 SW10G20   29.80R HX  93
MUSCATINE *    CLOUDY    91  68  46 S10       29.78R HX  95
QUAD CITIES    SUNNY     91  68  46 S12       29.79R HX  95
$$

IAZ062-063-075>077-085>089-095>099-210000-
   SOUTHEAST IOWA

CITY           SKY/WX    TMP DP  RH WIND       PRES   REMARKS
BURLINGTON     MOSUNNY   90  72  55 S9        29.80R HX  97
FAIRFIELD *    CLOUDY    88  70  55 W10       29.81R HX  92
FORT MADISON * MOSUNNY   91  72  52 S8        29.82R HX  98
KEOKUK *       MOSUNNY   91  70  49 S13       29.80R HX  97
OSKALOOSA *    CLOUDY    85  70  61 SW8       29.82R HX  89
CENTERVILLE *    N/A     84  72  65 CALM      29.84S HX  89
OTTUMWA        CLOUDY    86  70  58 SW5       29.81R HX  90
WASHINGTON *   MOSUNNY   88  73  62 W9        29.81R HX  96
$$

ABBREVIATIONS USED IN REMARKS
   TC - TEMPERATURES IN CELSIUS
  WCI - WIND CHILL INDEX
   HX - HEAT INDEX
  VSB - VISIBILITY
$$




USA.gov is the U.S. government's official web portal to all federal, state and local government web resources and services.